Location: Casteau
(50.5142°N, 4.0161°E)
Time: 02:55:50
(UTC+00:00)

KORONAS-FOTON - Pass Details

Date: 18 September 2020
Orbit: 506 x 531 km, 82.4° (Epoch: 24 October)

Event Time Altitude Azimuth Distance (km) Brightness Sun altitude
Rises 19:19:19 0° 354° (N) 2,689 7.8 -14.6°
Reaches altitude 10° 19:21:33 10° 1° (N) 1,795 6.8 -15.0°
Maximum altitude 19:25:21 44° 75° (ENE) 746 4.2 -15.5°
Enters shadow 19:26:46 30° 125° (SE) 965 4.6 -15.7°
